Hourly Data Report for February 19, 2004

TORONTO CITY
ONTARIO

43°40'00.000" N
79°24'00.000" W
112.50 m
6158355
71508
XTO

Download Data

Hourly Data (February 2004)
Hourly Data Report for February 19, 2004
TIME
LST
Temp Definition
°C
Dew Point Definition
°C
Rel Hum Definition
%
Precip. Amount Definition
mm

Wind Dir Definition
10's deg

Wind Spd Definition
km/h
Visibility Definition
km
Stn Press Definition
kPa
Hmdx Definition


Wind Chill Definition


Weather Definition


00:00 -0.4 -4.2 75   LegendMM LegendMM LegendMM 99.87     LegendNANA
01:00 -0.6 -4.1 77   LegendMM LegendMM LegendMM 99.85     LegendNANA
02:00 -0.7 -4.2 77   LegendMM LegendMM LegendMM 99.80     LegendNANA
03:00 -0.6 -3.8 79   LegendMM LegendMM LegendMM 99.76     LegendNANA
04:00 -1.0 -4.2 79   LegendMM LegendMM LegendMM 99.77     LegendNANA
05:00 -1.1 -3.8 82   LegendMM LegendMM LegendMM 99.81     LegendNANA
06:00 -1.1 -3.6 83   LegendMM LegendMM LegendMM 99.86     LegendNANA
07:00 -0.6 -3.5 81   LegendMM LegendMM LegendMM 99.90     LegendNANA
08:00 -0.6 -3.5 81   LegendMM LegendMM LegendMM 99.99     LegendNANA
09:00 0.2 -3.3 77   LegendMM LegendMM LegendMM 100.06     LegendNANA
10:00 2.0 -3.0 69   LegendMM LegendMM LegendMM 100.09     LegendNANA
11:00 4.0 -2.4 63   LegendMM LegendMM LegendMM 100.07     LegendNANA
12:00 4.7 -3.0 57   LegendMM LegendMM LegendMM 100.08     LegendNANA
13:00 4.3 -2.3 62   LegendMM LegendMM LegendMM 100.04     LegendNANA
14:00 3.3 -2.4 66   LegendMM LegendMM LegendMM 100.06     LegendNANA
15:00 2.7 -1.5 74   LegendMM LegendMM LegendMM 100.08     LegendNANA
16:00 2.8 -1.6 73   LegendMM LegendMM LegendMM 100.10     LegendNANA
17:00 2.4 -2.1 72   LegendMM LegendMM LegendMM 100.14     LegendNANA
18:00 2.5 -1.7 74   LegendMM LegendMM LegendMM 100.18     LegendNANA
19:00 2.4 -2.1 72   LegendMM LegendMM LegendMM 100.17     LegendNANA
20:00 2.0 -1.5 78   LegendMM LegendMM LegendMM 100.19     LegendNANA
21:00 1.6 -0.8 84   LegendMM LegendMM LegendMM 100.16     LegendNANA
22:00 1.9 -1.3 79   LegendMM LegendMM LegendMM 100.15     LegendNANA
23:00 2.0 -1.1 80   LegendMM LegendMM LegendMM 100.12     LegendNANA

Notes on Data Quality.

Legend

  • E = Estimated
  • M = Missing
  • NA = Not Available*
  • [empty] = Indicates an unobserved value
Date modified: